TimeCDT,TemperatureF,Dew PointF,Humidity,Sea Level PressureIn,VisibilityMPH,Wind Direction,Wind SpeedMPH,Gust SpeedMPH,PrecipitationIn,Events,Conditions,WindDirDegrees,DateUTC
12:53 AM,73.9,68.0,82,30.05,10.0,South,10.4,-,N/A,,Scattered Clouds,170,2013-05-28 05:53:00
1:53 AM,73.0,68.0,84,30.04,10.0,South,10.4,-,N/A,,Clear,170,2013-05-28 06:53:00
2:53 AM,72.0,66.9,84,30.03,5.0,SSE,8.1,-,N/A,,Haze,160,2013-05-28 07:53:00
3:53 AM,71.1,66.9,87,30.03,6.0,SSE,6.9,-,N/A,,Clear,150,2013-05-28 08:53:00
4:53 AM,69.1,66.0,90,30.04,2.0,SSE,6.9,-,N/A,,Clear,160,2013-05-28 09:53:00
5:19 AM,69.8,66.2,88,30.02,3.0,SSE,8.1,-,N/A,,Clear,160,2013-05-28 10:19:00
5:53 AM,70.0,66.0,87,30.05,8.0,SSE,4.6,-,N/A,,Clear,160,2013-05-28 10:53:00
6:53 AM,71.1,66.9,87,30.05,6.0,SSE,6.9,-,N/A,,Clear,150,2013-05-28 11:53:00
7:53 AM,73.9,68.0,82,30.04,5.0,SSE,9.2,-,N/A,,Haze,160,2013-05-28 12:53:00
8:53 AM,77.0,66.9,71,30.05,4.0,South,11.5,-,N/A,,Haze,170,2013-05-28 13:53:00
9:53 AM,79.0,66.9,66,30.06,10.0,SSW,9.2,17.3,N/A,,Clear,200,2013-05-28 14:53:00
10:53 AM,82.0,66.9,60,30.06,10.0,South,8.1,-,N/A,,Clear,170,2013-05-28 15:53:00
11:53 AM,84.0,64.0,51,30.06,10.0,South,11.5,18.4,N/A,,Clear,170,2013-05-28 16:53:00
12:53 PM,84.9,66.0,53,30.04,10.0,South,10.4,-,N/A,,Partly Cloudy,170,2013-05-28 17:53:00
1:53 PM,86.0,64.9,49,30.03,10.0,South,10.4,17.3,N/A,,Scattered Clouds,170,2013-05-28 18:53:00
2:53 PM,84.9,63.0,48,30.02,10.0,SSE,10.4,19.6,N/A,,Partly Cloudy,150,2013-05-28 19:53:00
3:53 PM,87.1,64.0,46,30.01,10.0,South,9.2,-,N/A,,Partly Cloudy,170,2013-05-28 20:53:00
4:53 PM,87.1,66.0,49,29.99,10.0,Variable,4.6,-,N/A,,Mostly Cloudy,0,2013-05-28 21:53:00
5:53 PM,84.0,66.0,55,29.99,10.0,SSE,6.9,-,N/A,,Mostly Cloudy,160,2013-05-28 22:53:00
6:48 PM,75.2,69.8,83,29.98,1.8,WSW,9.2,-,0.10,Rain,Heavy Rain,240,2013-05-28 23:48:00
6:53 PM,73.9,70.0,87,30.00,0.8,WSW,6.9,-,0.17,Rain,Rain,250,2013-05-28 23:53:00
7:04 PM,73.4,69.8,88,29.97,2.5,WNW,6.9,-,0.04,Rain,Light Rain,290,2013-05-29 00:04:00
7:11 PM,73.4,69.8,88,29.97,5.0,NNW,3.5,-,0.04,Rain,Light Rain,330,2013-05-29 00:11:00
7:24 PM,73.4,71.6,94,29.97,10.0,Calm,Calm,-,0.04,Thunderstorm,Thunderstorm,0,2013-05-29 00:24:00
7:39 PM,73.4,71.6,94,29.97,9.0,Calm,Calm,-,0.04,,Overcast,0,2013-05-29 00:39:00
7:53 PM,73.9,72.0,93,29.99,10.0,Calm,Calm,-,0.04,,Overcast,0,2013-05-29 00:53:00
8:53 PM,75.0,72.0,90,30.00,10.0,ESE,5.8,-,N/A,,Mostly Cloudy,110,2013-05-29 01:53:00
9:32 PM,75.2,71.6,89,29.99,1.5,SW,4.6,-,N/A,,Mostly Cloudy,220,2013-05-29 02:32:00
9:40 PM,73.4,71.6,94,29.99,0.5,SSE,4.6,-,N/A,Fog,Fog,160,2013-05-29 02:40:00
9:47 PM,75.2,71.6,89,29.98,2.0,SSE,5.8,-,N/A,,Mostly Cloudy,160,2013-05-29 02:47:00
9:53 PM,73.9,71.1,91,30.01,1.2,SSW,3.5,-,N/A,,Overcast,210,2013-05-29 02:53:00
10:28 PM,73.4,71.6,94,29.99,2.0,SSE,5.8,-,N/A,,Overcast,160,2013-05-29 03:28:00
10:44 PM,75.2,69.8,83,29.99,3.0,SSE,8.1,-,N/A,,Haze,160,2013-05-29 03:44:00
10:53 PM,75.0,69.1,82,30.01,2.5,SSE,9.2,-,N/A,,Haze,160,2013-05-29 03:53:00
11:05 PM,73.4,68.0,83,30.00,3.0,SSE,8.1,-,N/A,,Haze,160,2013-05-29 04:05:00
11:21 PM,73.4,68.0,83,30.00,2.5,SSE,8.1,-,N/A,,Haze,160,2013-05-29 04:21:00
11:53 PM,73.0,66.0,79,30.02,4.0,SSE,8.1,-,N/A,,Haze,150,2013-05-29 04:53:00